www.pogodaiklimat.ru

Погода и климат >> Архив погоды >> Россия >> Краснодарский край >> Горный


ПОГОДА в Горном

  • Прогноз погоды в Горном
  • Монитор погоды в Горном
  • Климат города

АРХИВ ПОГОДЫ в Горном

Время (UTC), дата Ветер
(напр.,м/с)
 
Видим.   Явления Облачность Т
(С)
Тd
(С)
f
(%)
Тe
(С)
Тes
(С)
Комфортность P
(гПа)
Po
(гПа)
Тmin
(С)
Tmax
(С)
R
(мм)
R24
(мм)
S
(см)
00 7.12 С 1 2000 м слабая морось 10/10 300 м
[St]
+2.2 -0.2 84 +1 +1 1014.4 974.8
03 7.12 С 1 2000 м морось 10/10 300 м
[St]
+1.6 -0.8 84 -0 -0 1014.8 975.0 1
06 7.12 штиль 0 10 км слабый ливневой дождь 10/10 300 м
[Cb cap]
+1.1 -1.2 85 0 0 1015.9 976.0 +1.0
09 7.12 штиль 0 10 км слабый ливневой снег 10/10 300 м
[Cb cap]
+0.5 -1.7 85 -1 -1 1016.4 976.5
12 7.12 штиль 0 10 км слабый ливневой дождь 10/10 600 м
[Cb cap]
+0.9 -1.4 85 -0 -0 1017.0 977.1
15 7.12 штиль 0 10 км слабый ливневой дождь со снегом 10/10 300 м
[Cb cap]
+0.2 -1.9 86 -1 -1 1017.7 977.6 +1.6 10
18 7.12 штиль 0 10 км слабый ливневой дождь со снегом 10/10 300 м
[Cb cap]
+0.1 -1.9 86 -1 -1 1018.1 978.0
21 7.12 штиль 0 20 км {ливн. осадки} 10/10 300 м
[Sc diur, vesp]
+0.2 -1.7 87 -1 -1 1018.3 978.2
00 8.12 штиль 0 10 км туман поземный {ливн. осадки} 10/10 600 м
[Sc]
0.0 0.0 100 -1 -1 1018.7 978.6
03 8.12 штиль 0 4000 м дымка 10/10 300 м
[Sc]
-0.1 -2.1 86 -1 -1 1019.3 979.2 -0.1 5
06 8.12 штиль 0 20 км 10/10 600 м
[Sc]
+0.2 -2.1 85 -1 -1 1020.7 980.5
09 8.12 штиль 0 20 км в посл. час крупа {ливн. осадки} 8/6 600 м
[Sc diur, vesp Ci]
+2.4 -1.2 77 +2 +3 1020.2 980.4
12 8.12 штиль 0 50 км {ливн. осадки} 8/3 600 м
[Sc diur, vesp Ci]
+5.0 -4.5 50 +5 +6 1019.4 979.9
15 8.12 СЗ 1 20 км 8/4 600 м
[Sc diur, vesp Ci]
+1.6 -1.5 80 -0 -0 1020.3 980.3 +5.6 0.3
18 8.12 штиль 0 500 м туман {ливн. осадки} [диам. гололёда 0 мм] ?/? -1.0 -1.7 95 -2 -2 1020.9 980.6
21 8.12 штиль 0 50 м туман [диам. гололёда 1 мм] ?/? -1.3 -2.0 95 -3 -3 980.5
00 9.12 С 1 50 м туман [диам. гололёда 2 мм] ?/? -1.9 -2.5 96 -4 -4 1020.9 980.4
03 9.12 штиль 0 50 м туман [диам. гололёда 2 мм] ?/? -2.4 -2.9 96 -4 -4 1020.0 979.4 -2.4 0.4
06 9.12 штиль 0 50 м туман [диам. гололёда 2 мм] ясно -2.4 -2.8 97 -4 -3 1020.1 979.6 -2.8
09 9.12 штиль 0 50 км {туман} 3/3 600 м
[Sc]
+5.2 +3.6 89 +4 +7 1017.5 978.2
12 9.12 Ю 1 50 км {туман} 8/5 600 м
[Sc Ci sp]
+8.8 +1.8 61 +8 +9 1015.6 976.9
15 9.12 Ю 1 50 км 10/9 600 м
[Sc Ci sp]
+7.5 +2.0 68 +7 +7 1014.9 975.9 +9.7
18 9.12 ЮЗ 2 50 км 8/8 600 м
[Sc Ci sp]
+7.5 -0.5 57 +6 +6 1013.7 974.9
21 9.12 Ю 2 50 км 6/6 600 м
[Sc]
+8.7 -3.5 42 +8 +8 1012.7 974.1
00 10.12 ЮЗ 1 50 км 3/3 600 м
[Sc]
+9.8 -6.0 32 +10 +10 1011.6 973.1
03 10.12 Ю 3 50 км 3/1 600 м
[Sc Ci sp]
+11.8 -9.3 22 +11 +11 1009.5 971.3 +7.0
06 10.12 ЮЗ 2 50 км 8/3 600 м
[Sc Ac lent Ci fib]
+12.3 -10.3 20 +12 +12 1009.0 971.0
09 10.12 Ю 3
{13}
50 км 9/9 600 м
[Sc]
+14.4 -11.1 16 +14 +14 1007.8 970.0
12 10.12 Ю 7-15
{15}
50 км 8/8 600 м
[Sc]
+11.5 +2.0 52 +9 +9 1008.7 970.6
15 10.12 Ю 4
{15}
10 км слабый ливневой дождь 10/10 600 м
[Cb cap]
+8.8 +5.5 80 +6 +6 1010.5 972.0 +14.6 8
18 10.12 ЮЗ 2 50 км {ливн. осадки} 3/3 600 м
[Sc diur, vesp]
+8.0 +4.3 77 +6 +6 1009.8 971.2
21 10.12 штиль 0 50 км 3/1 600 м
[Sc Ac lent]
+8.0 +4.3 77 +7 +7 1008.9 970.3
00 11.12 ЮЗ 2 50 км ясно +11.5 +1.4 50 +11 +11 1007.1 969.0
03 11.12 штиль 0 50 км 10/10 600 м
[Sc]
+6.4 +3.0 79 +6 +6 1005.5 966.8 +6.3 1
06 11.12 С 1 50 км 10/9 600 м
[Sc Ac lent]
+5.7 +2.1 78 +5 +5 1003.6 964.9 +5.1
09 11.12 Ю 5-13
{13}
20 км слабый ливневой дождь 10/10 600 м
[Cb cap]
+11.1 +3.4 59 +9 +9 1002.9 964.9
12 11.12 Ю 6-13
{19}
20 км в посл. час ливневой дождь 10/10 600 м
[Sc diur, vesp]
+11.1 +6.1 71 +8 +8 1002.6 964.7
15 11.12 Ю 7-14
{21}
1000 м сильная гроза, ливневой дождь 10/10 600 м
[Cb cap]
+8.1 +3.9 75 +4 +4 1005.1 966.7 +12.1 20
18 11.12 Ю 10-21
{23}
10 км слабый ливневой дождь {гроза} 10/10 600 м
[Cb cap]
+7.9 +1.0 62 +3 +3 1006.5 968.0
21 11.12 Ю 10-21
{25}
20 км {ливн. осадки} 8/8 600 м
[Sc diur, vesp]
+8.3 0.0 56 +4 +4 1007.8 969.3
00 12.12 Ю 9-21
{21}
20 км {ливн. осадки} 8/8 600 м
[Sc diur, vesp]
+7.8 -0.5 56 +3 +3 1009.1 970.4
03 12.12 Ю 8-17
{21}
20 км 8/8 600 м
[Sc diur, vesp]
+7.3 -0.7 57 +3 +3 1009.6 970.8 +7.3 5
06 12.12 Ю 5
{17}
20 км слабый ливневой дождь 10/10 600 м
[Cb cap]
+5.9 +1.6 74 +2 +2 1010.8 971.8 +5.6
09 12.12 Ю 3
{10}
20 км {ливн. осадки} 10/10 600 м
[Sc]
+7.3 +0.8 63 +5 +5 1010.4 971.7
12 12.12 штиль 0 20 км {ливн. осадки} 10/10 600 м
[Sc diur, vesp]
+6.9 +2.0 71 +6 +6 1010.6 971.9
15 12.12 СЗ 2 20 км слабый ливневой дождь 10/10 600 м
[Cb cap]
+5.5 +2.2 79 +3 +3 1012.1 973.1 +7.5 1
18 12.12 штиль 0 20 км слабый ливневой дождь 10/10 600 м
[Cb cap]
+4.3 -1.7 65 +4 +4 1014.1 974.8
21 12.12 СВ 2 20 км {ливн. осадки} 10/8 600 м
[Sc diur, vesp Ac lent]
+2.9 -0.7 77 0 0 1015.5 975.9
00 13.12 штиль 0 50 км {ливн. осадки} 8/3 600 м
[Sc diur, vesp Ci sp]
+1.9 -0.8 82 +1 +1 1016.6 976.8
03 13.12 штиль 0 20 км местами туман поземный 10/8 600 м
[Sc Ci sp]
+0.6 -1.0 89 -1 -1 1018.0 978.0 +0.6 1
06 13.12 С 1 4000 м туман поземный 10/3 600 м
[Sc diur, vesp Ci]
+0.1 -2.1 85 -2 -2 1019.6 979.5 -0.3
09 13.12 штиль 0 50 км 9/3 600 м
[Sc diur, vesp Ci fib]
+5.7 -1.3 61 +5 +8 1019.4 980.0
12 13.12 ЮЗ 2 10 км слабый ливневой дождь 10/10 600 м
[Cb cap]
+3.0 -0.3 79 0 0 1021.0 981.2
15 13.12 штиль 0 50 км {ливн. осадки} 5/5 600 м
[Sc diur, vesp]
+2.0 +0.2 88 +1 +1 1022.4 982.4 +6.3 3
18 13.12 штиль 0 50 км {ливн. осадки} 6/6 600 м
[Sc diur, vesp]
+1.6 -1.0 83 +1 +1 1024.0 983.8
21 13.12 З 2 10 км слабая крупа {ливн. осадки} 10/10 600 м
[Cb cap]
+2.0 -0.8 82 -1 -1 1023.7 983.7

 

Местоположение метеостанции Горный (Краснодарский край, Россия): широта 44.28 долгота 39.27 высота над уровнем моря 323 м.

В архиве по умолчанию представлена погода в Горном за последнюю неделю. Архивные данные за месяц целиком и за предыдущие месяцы, начиная с января 2011 года, Вы можете получить, выбрав интересующий диапазон дат из раскрывающегося списка и нажав кнопку "Ввод!".


*Определитесь, кто Вы:
робот инопланетянин человек

Внимание! Время в таблицах - всемирное. Для получения местного времени необходимо прибавить поправку, которая в Горном равна 3 ч.

Смотрите также архив погоды в соседних городах и на ближайших метеорологических станциях:

Погода в Туапсе (Краснодарский край, Россия) (26 км)
Погода в Магри (Краснодарский край, Россия) (30 км)
Погода в Горячем Ключе (Краснодарский край, Россия) (41 км)
Погода в Лазаревском (Краснодарский край, Россия) (43 км)
Погода в Джубге (Краснодарский край, Россия) (44 км)
Погода в Кичмае (Краснодарский край, Россия) (54 км)
Погода в Солох Ауле (Краснодарский край, Россия) (61 км)
Погода в Шунтуке (Адыгея, Россия) (71 км)
Погода в Белореченске (Краснодарский край, Россия) (72 км)
Погода в Майкопе (Адыгея, Россия) (75 км)

Пояснения к столбцам:

Ветер - указаны скорость ветра в м/с - средняя за 10 мин, порывы в срок и между сроками (в фигурных скобках) и направление, откуда дует ветер: С - северный, СВ - северо-восточный, В - восточный, ЮВ - юго-восточный, Ю - южный, ЮЗ - юго-западный, З - западный, СЗ - северо-западный.
Видимость - горизонтальная дальность видимости в метрах или километрах. При видимости от 1 до 10 км при отсутствии осадков обычно наблюдается дымка, при ухудшении видимости до 1 км и менее - туман. В сухую погоду видимость может ухудшаться дымом, пылью или мглою.
Явления - указаны атмосферные явления, наблюдавшиеся в срок или в последний час перед сроком; фигурными скобками обозначены явления, наблюдавшиеся между сроками (за 1-3 часа до срока); квадратными скобками обозначены град или гололедные отложения с указанием их диаметра в мм.
Облачность - указаны через наклонную черту общая и нижняя облачность в баллах и высота нижней границы облаков в метрах; квадратными скобками обозначены формы облаков: Ci - перистые, Cs - перисто-слоистые, Cc - перисто-кучевые, Ac - высококучевые, As - высокослоистые, Sc - слоисто-кучевые, Ns - слоисто-дождевые, Cu - кучевые, Cb - кучево-дождевые. Подробнее классификацию облаков см. в Атласе облаков (PDF).
T - Температура воздуха - температура, измеренная на высоте 2 м над землей.
Td - Температура точки росы - температура, при понижении до которой содержащийся в воздухе водяной пар достигнет насыщения.
f - Относительная влажность воздуха - влажноcть воздуха, измеренная на высоте 2 м над землей.
Te - Эффективная температура - температура, которую ощущает одетый по сезону человек в тени. Характеристика душности погоды. При расчете учитывается влияние влажности воздуха и скорости ветра на теплоощущения человека.
Tes - Эффективная температура на солнце - температура, которую ощущает человек, с поправкой на солнечный нагрев. Характеристика знойности погоды. Зависит от высоты солнца над горизонтом, облачности и скорости ветра. Ночью, в пасмурную погоду, а также при ветре 12 м/с и более поправка равна нулю.
P - Атмосферное давление - приведенное к уровню моря атмосферное давление.
Po - Атмосферное давление - измеренное на уровне метеостанции атмосферное давление.
Tmin - Минимальная температура - минимум температуры воздуха на высоте 2 м над землей.
Tmax - Максимальная температура - максимум температуры воздуха на высоте 2 м над землей.
R - Количество осадков - Количество выпавших осадков за период времени, мм. При наведении курсора мыши на число - период времени, за который выпало указанное количество осадков.
R24 - Количество осадков - Количество выпавших осадков за 24 часа, мм.
S - Снежный покров - Высота снежного покрова, см. При наведении курсора мыши на число - состояние снежного покрова и степень покрытия местности в баллах.